"Timestamp","TZ","WindDir_Mean (deg)","WindSpd_Mean (km/h)","WindSpd_Min (km/h)","WindSpd_Max (km/h)","Temp_Mean (deg)","RH_Mean (%)","MSLP_Mean (hPa)","Rain_Acc (mm)","Rain_Intensity (mm/h)","Hail_Acc (hits/cm2)","Hail_Intensity (hits/cm2hr)","Solar_Mean (W/m2)"
2018/07/02 00:00:00.012,n,146,5.04,4.32,5.4,16.3,82.8,1027.12,0,0,0,0,0.031319
2018/07/02 00:01:00.000,n,140,3.24,0.72,4.68,16.3,82.5,1027.22,0,0,0,0,0.031319
2018/07/02 00:02:00.000,n,137,4.32,2.88,6.12,16.3,82.5,1027.22,0,0,0,0,0.032196
2018/07/02 00:03:00.003,n,184,0.72,0.36,1.8,16.3,82.7,1027.22,0,0,0,0,0.033035
2018/07/02 00:04:00.000,n,168,7.56,6.48,8.28,16.3,82.4,1027.22,0,0,0,0,0.035667
2018/07/02 00:05:00.000,n,192,3.24,1.08,4.68,16.3,82.3,1027.22,0,0,0,0,0.031319
2018/07/02 00:06:00.000,n,156,8.28,7.56,9,16.3,82.1,1027.22,0,0,0,0,0.032196
2018/07/02 00:07:00.007,n,151,9,7.92,10.08,16.3,81.9,1027.22,0,0,0,0,0.034828
2018/07/02 00:08:00.005,n,155,7.56,6.84,7.92,16.3,82,1027.22,0,0,0,0,0.032196
2018/07/02 00:09:00.001,n,155,9,7.56,10.8,16.3,81.7,1027.22,0,0,0,0,0.031319
2018/07/02 00:10:00.000,n,142,6.48,5.76,7.92,16.3,81.8,1027.22,0,0,0,0,0.031319
2018/07/02 00:11:00.000,n,158,7.56,6.84,7.92,16.3,81.6,1027.22,0,0,0,0,0.025253
2018/07/02 00:12:00.000,n,132,3.96,3.6,4.68,16.3,82,1027.22,0,0,0,0,0.027847
2018/07/02 00:13:00.006,n,146,4.68,3.6,5.4,16.3,81.6,1027.22,0,0,0,0,0.024338
2018/07/02 00:14:00.004,n,134,7.56,7.2,7.92,16.3,81.9,1027.22,0,0,0,0,0.02697
2018/07/02 00:15:00.000,n,166,3.6,3.24,3.96,16.3,81.8,1027.22,0,0,0,0,0.027847
2018/07/02 00:16:00.000,n,150,9.36,8.64,9.72,16.3,81.7,1027.22,0,0,0,0,0.024338
2018/07/02 00:17:00.011,n,158,6.12,4.32,7.92,16.3,81.8,1027.22,0,0,0,0,0.026093
2018/07/02 00:18:00.009,n,138,6.48,6.12,6.84,16.3,81.9,1027.22,0,0,0,0,0.027847
2018/07/02 00:19:00.000,n,134,4.68,4.32,5.4,16.3,81.9,1027.22,0,0,0,0,0.028687
2018/07/02 00:20:00.000,n,163,5.04,4.32,5.76,16.3,81.9,1027.22,0,0,0,0,0.031319
2018/07/02 00:21:00.000,n,188,1.44,1.08,2.52,16.3,81.8,1027.22,0,0,0,0,0.021744
2018/07/02 00:22:00.007,n,145,4.68,3.6,5.04,16.3,81.7,1027.22,0,0,0,0,0.030479
2018/07/02 00:23:00.005,n,116,3.96,3.96,4.32,16.3,81.8,1027.22,0,0,0,0,0.026093
2018/07/02 00:24:00.001,n,103,3.96,3.6,4.68,16.3,81.9,1027.22,0,0,0,0,0.02697
2018/07/02 00:25:00.000,n,131,5.4,5.04,5.76,16.3,81.9,1027.22,0,0,0,0,0.025253
2018/07/02 00:26:00.012,n,103,3.96,3.24,4.32,16.3,82,1027.22,0,0,0,0,0.023499
2018/07/02 00:27:00.009,n,115,0.36,0.36,0.72,16.4,82.5,1027.22,0,0,0,0,0.029602
2018/07/02 00:28:00.000,n,169,2.52,1.8,3.24,16.4,82.6,1027.22,0,0,0,0,0.025253
2018/07/02 00:29:00.000,n,91,2.52,2.16,2.52,16.4,82.3,1027.32,0,0,0,0,0.026093
2018/07/02 00:30:00.000,n,73,1.8,1.8,2.16,16.4,82.3,1027.32,0,0,0,0,0.024338
2018/07/02 00:31:00.000,n,53,2.88,1.8,3.6,16.4,82.7,1027.32,0,0,0,0,0.022621
2018/07/02 00:32:00.000,n,62,2.88,2.16,3.6,16.5,82.4,1027.32,0,0,0,0,0.020905
2018/07/02 00:33:00.008,n,101,2.16,2.16,2.52,16.4,82.3,1027.32,0,0,0,0,0.028687
2018/07/02 00:34:00.006,n,64,3.24,2.52,3.6,16.4,82.7,1027.32,0,0,0,0,0.026093
2018/07/02 00:35:00.003,n,45,0.72,0,0.72,16.4,82.8,1027.32,0,0,0,0,0.022621
2018/07/02 00:36:00.000,n,76,1.8,1.44,2.16,16.5,82.6,1027.42,0,0,0,0,0.026093
2018/07/02 00:37:00.000,n,86,3.6,3.24,3.96,16.5,82.3,1027.42,0,0,0,0,0.025253
2018/07/02 00:38:00.000,n,64,2.52,2.52,2.88,16.4,81.9,1027.42,0,0,0,0,0.023499
2018/07/02 00:39:00.000,n,50,3.96,3.6,4.32,16.3,81.8,1027.42,0,0,0,0,0.02697
2018/07/02 00:40:00.005,n,57,1.8,1.08,2.52,16.3,82.5,1027.42,0,0,0,0,0.020905
2018/07/02 00:41:00.003,n,30,1.08,0.72,2.16,16.4,83,1027.42,0,0,0,0,0.023499
2018/07/02 00:42:00.000,n,51,2.88,2.16,3.24,16.4,82.2,1027.32,0,0,0,0,0.022621
2018/07/02 00:43:00.000,n,78,2.88,2.88,3.6,16.4,81.8,1027.32,0,0,0,0,0.025253
2018/07/02 00:44:00.010,n,63,3.6,2.88,3.96,16.4,82.1,1027.32,0,0,0,0,0.02697
2018/07/02 00:45:00.007,n,47,2.16,1.44,2.88,16.4,82.3,1027.32,0,0,0,0,0.032196
2018/07/02 00:46:00.000,n,59,3.6,3.24,3.96,16.4,81.9,1027.32,0,0,0,0,0.026093
2018/07/02 00:47:00.000,n,76,3.96,3.24,3.96,16.4,81.9,1027.32,0,0,0,0,0.02697
2018/07/02 00:48:00.000,n,41,3.24,2.16,3.6,16.4,82,1027.32,0,0,0,0,0.02697
2018/07/02 00:49:00.000,n,63,1.8,1.44,1.8,16.3,82.1,1027.32,0,0,0,0,0.023499
2018/07/02 00:50:00.008,n,71,3.96,3.6,4.32,16.4,82.2,1027.32,0,0,0,0,0.023499
2018/07/02 00:51:00.006,n,65,2.52,0.72,3.6,16.4,82.3,1027.32,0,0,0,0,0.027847
2018/07/02 00:52:00.013,n,54,2.88,2.16,3.24,16.4,82.5,1027.32,0,0.3,0,0,0.024338
2018/07/02 00:53:00.002,n,90,2.88,2.52,3.24,16.4,82.5,1027.32,0.01,0.4,0,0,0.025253
2018/07/02 00:54:00.008,n,69,2.88,2.52,3.24,16.4,82.5,1027.32,0.02,0.5,0,0,0.02697
2018/07/02 00:55:00.000,n,55,3.6,3.24,4.32,16.4,82.2,1027.22,0.02,0.1,0,0,0.022621
2018/07/02 00:56:00.004,n,95,0.72,0.36,1.44,16.4,82.5,1027.22,0.03,0.7,0,0,0.026093
2018/07/02 00:57:00.001,n,126,3.96,3.24,4.68,16.4,82.5,1027.32,0.03,0,0,0,0.02697
2018/07/02 00:58:00.000,n,92,2.52,2.52,2.88,16.3,82.7,1027.22,0.03,0,0,0,0.02697
2018/07/02 00:59:00.000,n,95,1.8,1.8,2.52,16.3,82.9,1027.22,0.03,0,0,0,0.029602
2018/07/02 01:00:00.011,n,119,5.4,5.04,5.76,16.3,82.8,1027.22,0.03,0,0,0,0.023499
2018/07/02 01:01:00.007,n,106,3.6,3.24,4.32,16.3,82.7,1027.22,0.03,0,0,0,0.027847
2018/07/02 01:02:00.005,n,101,2.88,2.16,3.24,16.3,82.9,1027.22,0.03,0,0,0,0.02697
2018/07/02 01:03:00.003,n,150,2.52,1.8,3.24,16.3,83.2,1027.12,0.03,0,0,0,0.026093
2018/07/02 01:04:00.000,n,156,2.16,1.8,2.88,16.3,83.3,1027.12,0.03,0,0,0,0.026093
2018/07/02 01:05:00.000,n,129,5.76,5.4,6.12,16.3,83.2,1027.02,0.03,0,0,0,0.026093
2018/07/02 01:06:00.000,n,68,2.16,1.44,3.24,16.200002,83.8,1027.02,0.03,0,0,0,0.029602
2018/07/02 01:07:00.000,n,82,3.6,2.16,4.32,16.200002,83.9,1027.02,0.03,0,0,0,0.025253
2018/07/02 01:08:00.006,n,98,2.88,2.52,3.6,16.200002,83.9,1026.92,0.03,0,0,0,0.026093
2018/07/02 01:09:00.003,n,91,2.16,0.72,3.24,16.200002,83.9,1026.92,0.03,0,0,0,0.025253
2018/07/02 01:10:00.000,n,100,2.16,1.44,2.52,16.200002,84.2,1026.92,0.03,0,0,0,0.025253
2018/07/02 01:11:00.014,n,165,2.52,2.16,2.52,16.200002,84.1,1026.92,0.03,0,0,0,0.030479
2018/07/02 01:12:00.011,n,140,4.32,3.96,4.68,16.200002,83.9,1026.92,0.03,0,0,0,0.024338
2018/07/02 01:13:00.000,n,152,3.6,3.24,4.32,16.1,84.1,1026.92,0.03,0,0,0,0.025253
2018/07/02 01:14:00.000,n,153,5.04,4.32,5.04,16.1,84.1,1026.92,0.03,0,0,0,0.022621
2018/07/02 01:15:00.003,n,137,4.32,3.96,5.04,16.1,84.2,1026.92,0.03,0,0,0,0.032196
2018/07/02 01:16:00.000,n,121,1.8,0.36,2.16,16,84.3,1026.92,0.03,0,0,0,0.026093
2018/07/02 01:17:00.000,n,151,3.96,2.88,4.68,16,84.4,1026.82,0.03,0,0,0,0.023499
2018/07/02 01:18:00.000,n,133,3.6,3.24,3.96,16,84.5,1026.82,0.03,0,0,0,0.022621
2018/07/02 01:19:00.009,n,127,5.4,4.32,7.2,16,84.5,1026.72,0.03,0,0,0,0.022621
2018/07/02 01:20:00.006,n,154,5.04,4.68,5.4,16,84.3,1026.72,0.03,0,0,0,0.025253
2018/07/02 01:21:00.003,n,161,6.48,6.12,6.48,15.9,84.2,1026.62,0.03,0,0,0,0.024338
2018/07/02 01:22:00.000,n,165,6.12,5.76,6.84,15.9,84.3,1026.62,0.03,0,0,0,0.023499
2018/07/02 01:23:00.000,n,174,6.12,5.76,6.84,15.9,84.3,1026.62,0.03,0,0,0,0.028687
2018/07/02 01:24:00.000,n,162,6.48,5.76,6.48,15.8,84.5,1026.52,0.03,0,0,0,0.028763
2018/07/02 01:25:00.000,n,172,4.68,3.96,5.76,15.8,84.5,1026.52,0.03,0,0,0,0.032196
2018/07/02 01:26:00.006,n,142,6.48,5.76,7.2,15.8,84.4,1026.52,0.03,0,0,0,0.035706
2018/07/02 01:27:00.002,n,143,5.04,3.96,6.84,15.8,84.5,1026.42,0.03,0,0,0,0.032196
2018/07/02 01:28:00.001,n,172,3.6,2.88,4.32,15.8,84.6,1026.42,0.03,0,0,0,0.031357
2018/07/02 01:29:00.015,n,119,3.24,2.16,3.6,15.8,84.8,1026.42,0.03,0,0,0,0.030479
2018/07/02 01:30:00.011,n,171,2.52,2.52,2.88,15.9,84.7,1026.42,0.03,0,0,0,0.033951
2018/07/02 01:31:00.000,n,137,4.32,3.96,4.68,15.9,84.7,1026.42,0.03,0,0,0,0.033951
2018/07/02 01:32:00.000,n,172,3.96,3.6,4.32,15.8,84.6,1026.42,0.03,0,0,0,0.030479
2018/07/02 01:33:00.005,n,167,5.4,5.04,6.12,15.8,84.6,1026.42,0.03,0,0,0,0.035706
2018/07/02 01:34:00.001,n,158,3.96,3.6,4.32,15.8,84.7,1026.42,0.03,0,0,0,0.029602
2018/07/02 01:35:00.000,n,114,3.6,3.24,3.96,15.8,84.7,1026.42,0.03,0,0,0,0.033112
2018/07/02 01:36:00.000,n,141,3.96,3.6,3.96,15.8,84.6,1026.42,0.03,0,0,0,0.033951
2018/07/02 01:37:00.010,n,108,2.88,2.88,3.24,15.8,84.8,1026.42,0.03,0,0,0,0.036545
2018/07/02 01:38:00.006,n,114,1.8,1.08,2.16,15.8,84.8,1026.42,0.03,0,0,0,0.034828
2018/07/02 01:39:00.003,n,237,0.36,0,0.72,15.9,85,1026.42,0.03,0,0,0,0.030479
2018/07/02 01:40:00.000,n,83,2.52,2.16,3.24,15.9,85.1,1026.42,0.03,0,0,0,0.033951
2018/07/02 01:41:00.000,n,64,2.52,2.16,2.52,15.9,85.2,1026.42,0.03,0,0,0,0.034828
2018/07/02 01:42:00.000,n,85,2.16,2.16,2.52,15.9,85.2,1026.42,0.03,0,0,0,0.032196
2018/07/02 01:43:00.000,n,156,0.36,0.36,0.36,15.9,85.1,1026.42,0.03,0,0,0,0.032196
2018/07/02 01:44:00.008,n,198,0.36,0,0.36,15.9,85,1026.42,0.03,0,0,0,0.033112
2018/07/02 01:45:00.004,n,179,1.44,1.08,1.44,15.9,84.9,1026.42,0.03,0,0,0,0.02697
2018/07/02 01:46:00.001,n,162,1.8,1.8,1.8,15.9,84.7,1026.42,0.03,0,0,0,0.023499
2018/07/02 01:47:00.000,n,135,2.52,2.16,2.88,15.9,84.7,1026.42,0.03,0,0,0,0.022621
2018/07/02 01:48:00.013,n,164,0.36,0,0.72,15.8,84.7,1026.52,0.03,0,0,0,0.021782
2018/07/02 01:49:00.000,n,265,2.52,2.16,2.52,15.8,84.8,1026.52,0.03,0,0,0,0.02697
2018/07/02 01:50:00.000,n,262,3.6,3.24,3.96,15.8,84.9,1026.52,0.03,0,0,0,0.023499
2018/07/02 01:51:00.004,n,265,2.52,2.52,2.52,15.8,84.9,1026.52,0.03,0,0,0,0.024376
2018/07/02 01:52:00.001,n,268,5.4,5.04,6.12,15.8,85,1026.52,0.03,0,0,0,0.024376
2018/07/02 01:53:00.000,n,264,5.04,4.68,5.4,15.8,84.7,1026.52,0.03,0,0,0,0.022621
2018/07/02 01:54:00.000,n,245,2.88,1.8,3.96,15.8,84.8,1026.52,0.03,0,0,0,0.022621
2018/07/02 01:55:00.009,n,246,4.68,3.96,5.04,15.8,84.8,1026.52,0.03,0,0,0,0.024376
2018/07/02 01:56:00.005,n,278,2.16,1.44,3.6,15.8,84.8,1026.52,0.03,0,0,0,0.026131
2018/07/02 01:57:00.003,n,243,3.24,2.88,3.6,15.8,84.8,1026.52,0.03,0,0,0,0.021782
2018/07/02 01:58:00.000,n,244,2.52,1.8,2.52,15.8,84.8,1026.52,0.03,0,0,0,0.031319
2018/07/02 01:59:00.000,n,264,3.24,2.88,3.96,15.8,84.8,1026.52,0.03,0,0,0,0.037422
2018/07/02 02:00:00.000,n,243,4.32,4.32,4.68,15.8,84.8,1026.52,0.03,0,0,0,0.038261
2018/07/02 02:01:00.008,n,289,3.24,2.88,3.6,15.8,84.7,1026.52,0.03,0,0,0,0.041771
2018/07/02 02:02:00.004,n,232,1.8,0.36,3.24,15.8,84.7,1026.52,0.03,0,0,0,0.034828
2018/07/02 02:03:00.001,n,274,2.88,2.88,3.6,15.8,84.6,1026.52,0.03,0,0,0,0.040894
2018/07/02 02:04:00.000,n,237,2.52,1.08,4.68,15.8,84.6,1026.52,0.03,0,0,0,0.034828
2018/07/02 02:05:00.014,n,261,5.04,4.68,6.12,15.8,84.5,1026.42,0.03,0,0,0,0.030441
2018/07/02 02:06:00.010,n,255,4.68,3.96,5.4,15.8,84.5,1026.42,0.03,0,0,0,0.039177
2018/07/02 02:07:00.000,n,248,4.68,3.96,5.04,15.8,84.4,1026.42,0.03,0,0,0,0.028687
2018/07/02 02:08:00.000,n,248,3.6,3.24,4.32,15.8,84.1,1026.42,0.03,0,0,0,0.032196
2018/07/02 02:09:00.003,n,274,1.44,0.72,1.8,15.8,84.2,1026.42,0.03,0,0,0,0.028687
2018/07/02 02:10:00.000,n,238,4.32,3.6,5.04,15.8,84.1,1026.42,0.03,0,0,0,0.033913
2018/07/02 02:11:00.000,n,266,3.6,3.24,4.32,15.8,84.1,1026.32,0.03,0,0,0,0.031319
2018/07/02 02:12:00.011,n,275,2.88,2.16,3.6,15.8,84.1,1026.32,0.03,0,0,0,0.032196
2018/07/02 02:13:00.007,n,292,2.52,2.16,2.52,15.8,84.1,1026.32,0.03,0,0,0,0.030441
2018/07/02 02:14:00.004,n,243,4.68,3.96,5.4,15.8,83.8,1026.32,0.03,0,0,0,0.032196
2018/07/02 02:15:00.001,n,241,1.44,0.72,1.8,15.8,83.9,1026.32,0.03,0,0,0,0.028687
2018/07/02 02:16:00.000,n,268,5.04,3.6,5.76,15.8,83.7,1026.32,0.03,0,0,0,0.033035
2018/07/02 02:17:00.000,n,274,5.4,5.04,5.4,15.8,83.7,1026.32,0.03,0,0,0,0.035667
2018/07/02 02:18:00.000,n,258,4.68,4.32,5.4,15.8,83.6,1026.22,0.03,0,0,0,0.035667
2018/07/02 02:19:00.007,n,266,5.4,4.32,5.76,15.8,83.5,1026.22,0.03,0,0,0,0.032196
2018/07/02 02:20:00.004,n,191,1.44,1.08,2.16,15.8,83.5,1026.22,0.03,0,0,0,0.028687
2018/07/02 02:21:00.001,n,233,2.16,1.44,2.88,15.8,83.5,1026.22,0.03,0,0,0,0.027847
2018/07/02 02:22:00.000,n,217,2.52,1.44,3.24,15.8,83.4,1026.22,0.03,0,0,0,0.031319
2018/07/02 02:23:00.012,n,249,1.8,1.44,1.8,15.8,83.4,1026.22,0.03,0,0,0,0.034828
2018/07/02 02:24:00.010,n,242,2.52,2.16,2.52,15.8,83.4,1026.22,0.03,0,0,0,0.035667
2018/07/02 02:25:00.000,n,271,2.16,1.44,3.24,15.8,83.3,1026.22,0.03,0,0,0,0.027847
2018/07/02 02:26:00.000,n,263,3.96,3.24,4.32,15.8,83.3,1026.22,0.03,0,0,0,0.032196
2018/07/02 02:27:00.002,n,257,2.16,2.16,2.52,15.8,83.2,1026.22,0.03,0,0,0,0.033913
2018/07/02 02:28:00.000,n,249,4.32,3.6,5.04,15.8,83.2,1026.12,0.03,0,0,0,0.029564
2018/07/02 02:29:00.000,n,261,2.88,2.16,3.6,15.8,83.1,1026.12,0.03,0,0,0,0.030441
2018/07/02 02:30:00.011,n,264,2.16,1.8,2.88,15.7,83.1,1026.12,0.03,0,0,0,0.029564
2018/07/02 02:31:00.008,n,247,3.24,2.88,3.6,15.7,83,1026.12,0.03,0,0,0,0.032196
2018/07/02 02:32:00.005,n,281,3.6,2.16,4.68,15.7,83,1026.12,0.03,0,0,0,0.028687
2018/07/02 02:33:00.002,n,266,5.04,4.68,5.4,15.7,83,1026.12,0.03,0,0,0,0.028687
2018/07/02 02:34:00.000,n,268,6.48,6.48,6.84,15.7,82.9,1026.12,0.03,0,0,0,0.02697
2018/07/02 02:35:00.000,n,273,5.76,5.04,6.84,15.7,82.8,1026.12,0.03,0,0,0,0.027847
2018/07/02 02:36:00.000,n,262,6.84,6.12,7.2,15.7,82.7,1026.12,0.03,0,0,0,0.026093
2018/07/02 02:37:00.008,n,278,3.96,2.16,5.4,15.7,82.6,1026.12,0.03,0,0,0,0.027847
2018/07/02 02:38:00.004,n,280,4.68,3.96,5.04,15.7,82.7,1026.12,0.03,0,0,0,0.023499
2018/07/02 02:39:00.001,n,253,2.88,2.52,3.24,15.7,82.7,1026.12,0.03,0,0,0,0.029564
2018/07/02 02:40:00.000,n,232,1.8,1.44,1.8,15.7,82.7,1026.02,0.03,0,0,0,0.023499
2018/07/02 02:41:00.014,n,241,2.16,2.16,2.52,15.7,82.7,1026.02,0.03,0,0,0,0.024338
2018/07/02 02:42:00.010,n,300,0.72,0.72,1.08,15.7,82.7,1026.02,0.03,0,0,0,0.033073
2018/07/02 02:43:00.000,n,249,1.44,1.08,1.8,15.7,82.7,1026.02,0.03,0,0,0,0.040054
2018/07/02 02:44:00.004,n,198,1.08,0.36,1.44,15.7,82.6,1026.12,0.03,0,0,0,0.035706
2018/07/02 02:45:00.000,n,268,4.32,3.96,4.68,15.7,82.6,1026.12,0.03,0,0,0,0.036583
2018/07/02 02:46:00.000,n,268,3.24,1.8,3.96,15.7,82.6,1026.02,0.03,0,0,0,0.031357
2018/07/02 02:47:00.000,n,260,2.16,1.8,2.52,15.7,82.6,1026.02,0.03,0,0,0,0.035706
2018/07/02 02:48:00.009,n,202,1.08,0.36,2.16,15.7,82.6,1026.02,0.03,0,0,0,0.033951
2018/07/02 02:49:00.006,n,251,1.44,0.72,2.52,15.7,82.5,1026.02,0.03,0,0,0,0.031357
2018/07/02 02:50:00.003,n,247,2.52,1.8,2.88,15.7,82.4,1026.02,0.03,0,0,0,0.039177
2018/07/02 02:51:00.016,n,254,2.16,1.8,2.88,15.6,82.4,1026.02,0.03,0,0,0,0.035706
2018/07/02 02:52:00.000,n,262,2.52,2.52,3.24,15.6,82.4,1026.02,0.03,0,0,0,0.027885
2018/07/02 02:53:00.000,n,257,6.48,5.76,7.2,15.6,82.2,1025.92,0.03,0,0,0,0.033073
2018/07/02 02:54:00.000,n,258,2.88,2.16,3.6,15.6,82.2,1026.02,0.03,0,0,0,0.032234
2018/07/02 02:55:00.005,n,252,4.32,3.96,5.76,15.6,82.2,1025.92,0.03,0,0,0,0.029602
2018/07/02 02:56:00.002,n,242,3.24,2.88,3.6,15.6,82.2,1025.92,0.03,0,0,0,0.029602
2018/07/02 02:57:00.000,n,251,3.24,3.24,3.96,15.6,82.2,1026.02,0.03,0,0,0,0.027885
2018/07/02 02:58:00.013,n,246,4.32,2.88,5.76,15.6,82.1,1025.92,0.03,0,0,0,0.030479
2018/07/02 02:59:00.010,n,242,2.52,1.8,2.88,15.6,82.1,1025.92,0.03,0,0,0,0.029602
2018/07/02 03:00:00.007,n,224,3.24,2.16,3.96,15.6,82,1025.92,0.03,0,0,0,0.031357
2018/07/02 03:01:00.000,n,248,2.52,1.8,2.88,15.6,82,1025.92,0.03,0,0,0,0.029602
2018/07/02 03:02:00.003,n,139,1.8,1.44,2.52,15.6,82,1025.92,0.03,0,0,0,0.029602
2018/07/02 03:03:00.000,n,247,6.12,4.68,7.2,15.6,81.9,1025.92,0.03,0,0,0,0.031357
2018/07/02 03:04:00.000,n,254,2.52,2.16,2.88,15.6,81.9,1025.92,0.03,0,0,0,0.027008
2018/07/02 03:05:00.000,n,273,2.16,1.08,3.6,15.6,81.9,1025.92,0.03,0,0,0,0.030479
2018/07/02 03:06:00.008,n,240,1.44,1.08,2.16,15.6,81.9,1025.92,0.03,0,0,0,0.027885
2018/07/02 03:07:00.005,n,263,3.96,3.6,4.32,15.6,81.9,1025.92,0.03,0,0,0,0.033073
2018/07/02 03:08:00.001,n,270,2.88,2.16,3.24,15.6,81.9,1025.92,0.03,0,0,0,0.028725
2018/07/02 03:09:00.016,n,252,2.16,1.44,3.24,15.6,81.9,1025.92,0.03,0,0,0,0.027885
2018/07/02 03:10:00.000,n,262,3.6,3.6,3.96,15.6,81.7,1025.82,0.03,0,0,0,0.033951
2018/07/02 03:11:00.000,n,270,3.96,2.88,5.4,15.6,81.7,1025.82,0.03,0,0,0,0.027885
2018/07/02 03:12:00.000,n,296,1.8,1.08,2.52,15.6,81.8,1025.82,0.03,0,0,0,0.033951
2018/07/02 03:13:00.006,n,236,2.52,2.16,2.88,15.6,81.8,1025.82,0.03,0,0,0,0.027885
2018/07/02 03:14:00.002,n,277,3.24,2.52,3.6,15.6,81.6,1025.82,0.03,0,0,0,0.024376
2018/07/02 03:15:00.000,n,142,2.16,1.08,3.6,15.6,81.7,1025.82,0.03,0,0,0,0.031357
2018/07/02 03:16:00.000,n,256,2.88,2.52,3.24,15.6,81.6,1025.82,0.03,0,0,0,0.027008
2018/07/02 03:17:00.011,n,308,1.8,0.72,3.24,15.5,81.5,1025.82,0.03,0,0,0,0.029602
2018/07/02 03:18:00.008,n,267,2.88,1.8,6.12,15.5,81.5,1025.82,0.03,0,0,0,0.029602
2018/07/02 03:19:00.000,n,264,4.68,3.6,6.12,15.5,81.5,1025.72,0.03,0,0,0,0.028725
2018/07/02 03:20:00.003,n,244,2.88,2.88,3.6,15.5,81.4,1025.72,0.03,0,0,0,0.027008
2018/07/02 03:21:00.000,n,227,2.16,1.08,2.52,15.5,81.4,1025.72,0.03,0,0,0,0.028725
2018/07/02 03:22:00.000,n,294,2.16,1.44,2.88,15.5,81.4,1025.72,0.03,0,0,0,0.029602
2018/07/02 03:23:00.000,n,310,4.32,3.6,4.68,15.5,81.4,1025.72,0.03,0,0,0,0.026093
2018/07/02 03:24:00.008,n,255,3.6,3.24,4.32,15.5,81.4,1025.72,0.03,0,0,0,0.021744
2018/07/02 03:25:00.004,n,274,2.88,2.52,3.24,15.5,81.4,1025.72,0.03,0,0,0,0.031357
2018/07/02 03:26:00.001,n,263,1.8,1.08,2.88,15.5,81.4,1025.72,0.03,0,0,0,0.030479
2018/07/02 03:27:00.015,n,261,3.6,3.6,4.32,15.4,81.4,1025.72,0.03,0,0,0,0.026093
2018/07/02 03:28:00.000,n,227,2.16,1.8,3.24,15.4,81.4,1025.72,0.03,0,0,0,0.027008
2018/07/02 03:29:00.000,n,224,4.32,3.6,4.68,15.4,81.4,1025.72,0.03,0,0,0,0.032234
2018/07/02 03:30:00.000,n,258,4.32,3.96,4.68,15.4,81.5,1025.72,0.03,0,0,0,0.025253
2018/07/02 03:31:00.004,n,290,2.16,1.08,3.96,15.4,81.5,1025.72,0.03,0,0,0,0.023499
2018/07/02 03:32:00.001,n,224,1.44,1.08,1.44,15.4,81.4,1025.72,0.03,0,0,0,0.027008
2018/07/02 03:33:00.000,n,230,4.68,3.6,7.2,15.4,81.5,1025.62,0.03,0,0,0,0.025253
2018/07/02 03:34:00.013,n,285,2.16,1.8,2.52,15.4,81.5,1025.62,0.03,0,0,0,0.024376
2018/07/02 03:35:00.009,n,255,3.96,3.24,4.68,15.4,81.5,1025.62,0.03,0,0,0,0.030479
2018/07/02 03:36:00.005,n,179,5.4,4.68,6.48,15.4,81.5,1025.62,0.03,0,0,0,0.033951
2018/07/02 03:37:00.000,n,264,1.8,1.08,2.88,15.4,81.6,1025.62,0.03,0,0,0,0.031357
2018/07/02 03:38:00.000,n,167,1.08,0.36,2.16,15.4,81.7,1025.62,0.03,0,0,0,0.0383
2018/07/02 03:39:00.000,n,290,2.88,1.44,3.96,15.4,81.7,1025.62,0.03,0,0,0,0.030479
2018/07/02 03:40:00.000,n,250,9.36,8.64,10.440002,15.4,81.5,1025.62,0.03,0,0,0,0.033951
2018/07/02 03:41:00.007,n,292,3.24,0.36,5.4,15.4,81.5,1025.62,0.03,0,0,0,0.0383
2018/07/02 03:42:00.004,n,291,2.88,2.16,3.24,15.4,81.6,1025.52,0.03,0,0,0,0.034828
2018/07/02 03:43:00.002,n,280,1.44,0.36,2.52,15.4,81.7,1025.52,0.03,0,0,0,0.033112
2018/07/02 03:44:00.000,n,282,1.44,1.08,1.8,15.4,81.6,1025.52,0.03,0,0,0,0.027885
2018/07/02 03:45:00.015,n,139,3.96,3.24,4.32,15.4,81.6,1025.52,0.03,0,0,0,0.029602
2018/07/02 03:46:00.000,n,252,4.68,4.32,5.4,15.4,81.6,1025.52,0.03,0,0,0,0.033951
2018/07/02 03:47:00.000,n,172,1.08,0.72,2.16,15.4,81.6,1025.52,0.03,0,0,0,0.030479
2018/07/02 03:48:00.000,n,14,1.44,0.36,1.8,15.4,81.8,1025.52,0.03,0,0,0,0.030479
2018/07/02 03:49:00.005,n,134,0.72,0,1.08,15.4,81.8,1025.52,0.03,0,0,0,0.03746
2018/07/02 03:50:00.001,n,215,0.72,0.36,1.44,15.4,81.7,1025.52,0.03,0,0,0,0.026131
2018/07/02 03:51:00.000,n,116,1.08,0.72,1.8,15.4,82,1025.52,0.03,0,0,0,0.028763
2018/07/02 03:52:00.012,n,300,1.8,1.44,2.16,15.4,81.8,1025.52,0.03,0,0,0,0.033112
2018/07/02 03:53:00.009,n,95,1.8,1.44,2.52,15.4,81.8,1025.42,0.03,0,0,0,0.029602
2018/07/02 03:54:00.006,n,314,1.8,0.72,2.88,15.4,81.7,1025.42,0.03,0,0,0,0.028763
2018/07/02 03:55:00.000,n,201,3.24,2.52,3.96,15.4,81.7,1025.42,0.03,0,0,0,0.029602
2018/07/02 03:56:00.001,n,203,0.36,0.36,0.72,15.4,81.5,1025.42,0.03,0,0,0,0.029602
2018/07/02 03:57:00.000,n,303,1.44,1.08,2.16,15.3,81.5,1025.42,0.03,0,0,0,0.028763
2018/07/02 03:58:00.000,n,163,5.4,4.68,6.12,15.3,81.6,1025.42,0.03,0,0,0,0.031357
2018/07/02 03:59:00.000,n,193,2.16,1.44,2.52,15.3,81.5,1025.42,0.03,0,0,0,0.031357
2018/07/02 04:00:00.007,n,326,1.8,1.44,2.16,15.3,81.6,1025.42,0.03,0,0,0,0.030479
2018/07/02 04:01:00.004,n,206,2.16,1.08,2.88,15.2,81.5,1025.42,0.03,0,0,0,0.029602
2018/07/02 04:02:00.002,n,146,2.88,2.52,3.6,15.2,81.6,1025.42,0.03,0,0,0,0.027008
2018/07/02 04:03:00.017,n,210,3.6,2.52,3.96,15.2,81.6,1025.42,0.03,0,0,0,0.027885
2018/07/02 04:04:00.000,n,274,2.88,1.8,3.24,15.2,81.7,1025.42,0.03,0,0,0,0.025253
2018/07/02 04:05:00.000,n,311,1.8,1.44,2.16,15.2,81.7,1025.42,0.03,0,0,0,0.024376
2018/07/02 04:06:00.000,n,257,3.96,3.6,4.68,15.2,81.7,1025.42,0.03,0,0,0,0.030479
2018/07/02 04:07:00.005,n,218,1.8,1.44,1.8,15.2,81.7,1025.42,0.03,0,0,0,0.027008
2018/07/02 04:08:00.001,n,280,2.88,2.16,4.32,15.2,81.7,1025.42,0.03,0,0,0,0.027885
2018/07/02 04:09:00.000,n,161,3.6,2.88,4.32,15.2,81.7,1025.42,0.03,0,0,0,0.023537
2018/07/02 04:10:00.012,n,206,3.96,3.24,4.68,15.1,81.7,1025.42,0.03,0,0,0,0.031357
2018/07/02 04:11:00.009,n,263,3.6,1.8,5.04,15.1,81.8,1025.52,0.03,0,0,0,0.026131
2018/07/02 04:12:00.006,n,244,3.6,2.88,5.04,15.1,81.8,1025.52,0.03,0,0,0,0.021782
2018/07/02 04:13:00.000,n,219,0.36,0,0.72,15.1,81.8,1025.52,0.03,0,0,0,0.031357
2018/07/02 04:14:00.001,n,237,0.72,0.36,2.16,15.1,81.9,1025.52,0.03,0,0,0,0.023537
2018/07/02 04:15:00.000,n,345,0.72,0.36,0.72,15.1,81.9,1025.52,0.03,0,0,0,0.028763
2018/07/02 04:16:00.000,n,281,3.24,2.52,3.6,15.1,81.9,1025.52,0.03,0,0,0,0.026131
2018/07/02 04:17:00.009,n,175,4.68,4.32,5.04,15.1,81.9,1025.52,0.03,0,0,0,0.032234
2018/07/02 04:18:00.006,n,272,2.52,1.44,3.24,15.1,82,1025.52,0.03,0,0,0,0.023537
2018/07/02 04:19:00.004,n,306,1.44,0.36,2.52,15.1,81.8,1025.52,0.03,0,0,0,0.021782
2018/07/02 04:20:00.001,n,251,2.16,2.16,2.52,15.1,81.8,1025.52,0.03,0,0,0,0.023537
2018/07/02 04:21:00.015,n,251,4.68,3.96,5.4,15.1,81.8,1025.52,0.03,0,0,0,0.024376
2018/07/02 04:22:00.000,n,12,1.08,0,1.44,15.1,82.1,1025.52,0.03,0,0,0,0.024376
2018/07/02 04:23:00.000,n,118,1.8,0.72,2.16,15.1,82,1025.52,0.03,0,0,0,0.027008
2018/07/02 04:24:00.000,n,121,2.52,1.08,3.24,15.1,82,1025.52,0.03,0,0,0,0.028725
2018/07/02 04:25:00.000,n,280,4.32,3.6,5.04,15.1,81.9,1025.52,0.03,0,0,0,0.033951
2018/07/02 04:26:00.000,n,275,2.52,2.16,2.88,15.1,82.1,1025.42,0.03,0,0,0,0.031357
2018/07/02 04:27:00.010,n,161,1.8,0.72,2.52,15.1,81.9,1025.42,0.03,0,0,0,0.041809
2018/07/02 04:28:00.007,n,149,2.52,0.36,3.24,15.1,81.8,1025.42,0.03,0,0,0,0.032234
2018/07/02 04:29:00.004,n,192,0.72,0.36,1.08,15.1,81.9,1025.42,0.03,0,0,0,0.027008
2018/07/02 04:30:00.001,n,160,0.72,0.36,1.08,15.1,82,1025.42,0.03,0,0,0,0.032234
2018/07/02 04:31:00.000,n,296,1.44,1.08,2.52,15.1,82,1025.52,0.03,0,0,0,0.028725
2018/07/02 04:32:00.000,n,299,3.6,3.24,3.96,15,82,1025.52,0.03,0,0,0,0.029602
2018/07/02 04:33:00.000,n,250,3.24,2.16,4.32,15,82.1,1025.52,0.03,0,0,0,0.033951
2018/07/02 04:34:00.000,n,192,3.24,2.16,3.96,15,82,1025.52,0.03,0,0,0,0.027885
2018/07/02 04:35:00.006,n,149,6.48,5.76,6.84,15,82,1025.52,0.03,0,0,0,0.031357
2018/07/02 04:36:00.002,n,200,1.44,0.72,2.52,15,82,1025.52,0.03,0,0,0,0.031357
2018/07/02 04:37:00.000,n,220,2.52,2.16,3.24,15.1,82,1025.62,0.03,0,0,0,0.031357
2018/07/02 04:38:00.014,n,276,1.8,1.08,3.6,15.1,82,1025.62,0.03,0,0,0,0.032234
2018/07/02 04:39:00.011,n,270,2.52,2.16,2.88,15.1,82,1025.62,0.03,0,0,0,0.032234
2018/07/02 04:40:00.000,n,148,1.08,0.72,1.44,15.1,82.1,1025.62,0.03,0,0,0,0.033112
2018/07/02 04:41:00.000,n,97,2.88,2.16,3.6,15.1,82.3,1025.62,0.03,0,0,0,0.029602
2018/07/02 04:42:00.002,n,210,1.08,0.72,1.08,15.1,82.1,1025.62,0.03,0,0,0,0.027885
2018/07/02 04:43:00.000,n,93,0.72,0.36,1.08,15.1,82.2,1025.72,0.03,0,0,0,0.024376
2018/07/02 04:44:00.000,n,268,3.24,2.52,3.96,15.1,82.1,1025.72,0.03,0,0,0,0.029602
2018/07/02 04:45:00.010,n,313,1.08,0.36,2.16,15.1,82.1,1025.72,0.03,0,0,0,0.032234
2018/07/02 04:46:00.007,n,264,4.32,1.44,6.84,15.1,81.9,1025.72,0.03,0,0,0,0.027008